Погода в Елхове

Болгария     42°10′19″N   26°34′08″E
темп.,
°C
ветер,
м/с
пор.,
м/с
влажн.,
%
обл.,
%
осадки,
мм/ч
давл.,
гПа
погр.,
м
8 мая, сб
сб800:00+15ю227191 0.0 100942
03:00+13ююз227753 0.0 100914
06:00+13зсз2285100 0.0 101130
09:00+18ссз456518 0.0 1014735
12:00+18сз4657100 0.0 1015873
15:00+14ссв4874100 0.2 1017559
18:00+14св476890 0.2 1018667
21:00+13всв365958 0.2 1020152
9 мая, вс
вс900:00+9всв359756 0.0 1022108
03:00+7св11920 0.0 102412
06:00+6св11905 0.0 102510
09:00+12всв24725 0.0 1027521
12:00+15всв445868 0.1 10271600
15:00+15в445629 0.1 10271371
18:00+16в44575 0.0 10261273
21:00+9в49765 0.0 1028171
10 мая, пн
пн1000:00+6св12845 0.0 102910
03:00+5ссв11891 0.0 102810
06:00+4ссв11895 0.0 102710
09:00+11св24705 0.0 1028450
12:00+15всв56561 0.0 10271225
15:00+16всв66480 0.0 10251289
18:00+14всв66590 0.0 1024977
21:00+8всв35880 0.0 102576
11 мая, вт
вт1100:00+6св12900 0.0 102512
03:00+5с11890 0.0 102510
06:00+4ссз11890 0.0 102410
09:00+11св22720 0.0 1024389
12:00+16всв44560 0.0 10221168
15:00+18всв44530 0.0 10201337
18:00+16всв55610 0.0 1019950
21:00+9в36860 0.0 101978
12 мая, ср
ср1200:00+6всв11880 0.0 101910
03:00+5с11880 0.0 101710
06:00+4в00890 0.0 101610
09:00+11юв11703 0.0 1015289
12:00+17вюв33510 0.0 1012946
15:00+20ю45472 0.0 10101300
18:00+19ююв4661100 0.0 10081052
21:00+12в3483100 0.0 100861